Time,TemperatureF,DewpointF,PressureIn,WindDirection,WindDirectionDegrees,WindSpeedMPH,WindSpeedGustMPH,Humidity,HourlyPrecipIn,Conditions,Clouds,dailyrainin,SoftwareType,DateUTC
2013-01-07 00:00:00,34.9,32.5,30.05,North,0,0.0,0.0,91,0.00,,,0.00,WUHU21623XXSP,2013-01-07 08:00:00,
2013-01-07 00:10:00,34.9,32.5,30.05,North,0,0.0,0.0,91,0.00,,,0.00,WUHU21623XXSP,2013-01-07 08:10:00,
2013-01-07 00:20:00,34.9,32.5,30.04,North,0,0.0,0.0,91,0.00,,,0.00,WUHU21623XXSP,2013-01-07 08:20:00,
2013-01-07 00:30:00,34.3,31.9,30.04,North,0,0.0,0.0,91,0.00,,,0.00,WUHU21623XXSP,2013-01-07 08:30:00,
2013-01-07 00:40:00,34.2,31.8,30.04,North,0,0.0,0.0,91,0.00,,,0.00,WUHU21623XXSP,2013-01-07 08:40:00,
2013-01-07 00:50:00,34.0,31.6,30.03,North,0,0.0,0.0,91,0.00,,,0.00,WUHU21623XXSP,2013-01-07 08:50:00,
2013-01-07 01:00:00,33.6,31.2,30.03,North,0,0.0,0.0,91,0.00,,,0.00,WUHU21623XXSP,2013-01-07 09:00:00,
2013-01-07 01:10:00,33.6,31.2,30.03,North,0,0.0,0.0,91,0.00,,,0.00,WUHU21623XXSP,2013-01-07 09:10:00,
2013-01-07 01:20:00,33.6,31.2,30.03,North,0,0.0,0.0,91,0.00,,,0.00,WUHU21623XXSP,2013-01-07 09:20:00,
2013-01-07 01:30:00,33.4,31.0,30.03,North,0,0.0,0.0,91,0.00,,,0.00,WUHU21623XXSP,2013-01-07 09:30:00,
2013-01-07 01:40:00,33.3,30.9,30.03,North,0,0.0,0.0,91,0.00,,,0.00,WUHU21623XXSP,2013-01-07 09:40:00,
2013-01-07 01:50:00,32.9,30.5,30.03,North,0,0.0,0.0,91,0.00,,,0.00,WUHU21623XXSP,2013-01-07 09:50:00,
2013-01-07 02:00:00,32.7,30.3,30.03,North,0,0.0,0.0,91,0.00,,,0.00,WUHU21623XXSP,2013-01-07 10:00:00,
2013-01-07 02:10:00,32.7,30.3,30.03,North,0,0.0,0.0,91,0.00,,,0.00,WUHU21623XXSP,2013-01-07 10:10:00,
2013-01-07 02:20:00,32.4,30.0,30.03,North,0,0.0,0.0,91,0.00,,,0.00,WUHU21623XXSP,2013-01-07 10:20:00,
2013-01-07 02:30:00,32.4,30.0,30.03,North,0,0.0,0.0,91,0.00,,,0.00,WUHU21623XXSP,2013-01-07 10:30:00,
2013-01-07 02:40:00,32.5,30.1,30.04,North,0,0.0,0.0,91,0.00,,,0.00,WUHU21623XXSP,2013-01-07 10:40:00,
2013-01-07 02:50:00,32.5,30.1,30.04,North,0,0.0,0.0,91,0.00,,,0.00,WUHU21623XXSP,2013-01-07 10:50:00,
2013-01-07 03:00:00,32.7,30.3,30.04,North,0,0.0,0.0,91,0.00,,,0.00,WUHU21623XXSP,2013-01-07 11:00:00,
2013-01-07 03:10:00,32.7,30.3,30.05,North,0,0.0,0.0,91,0.00,,,0.00,WUHU21623XXSP,2013-01-07 11:10:00,
2013-01-07 03:20:00,32.7,30.3,30.05,North,0,0.0,0.0,91,0.00,,,0.00,WUHU21623XXSP,2013-01-07 11:20:00,
2013-01-07 03:30:00,32.9,30.5,30.04,North,0,0.0,0.0,91,0.00,,,0.00,WUHU21623XXSP,2013-01-07 11:30:00,
2013-01-07 03:40:00,33.1,30.7,30.04,North,0,0.0,0.0,91,0.00,,,0.00,WUHU21623XXSP,2013-01-07 11:40:00,
2013-01-07 03:50:00,33.1,30.7,30.03,North,0,0.0,0.0,91,0.00,,,0.00,WUHU21623XXSP,2013-01-07 11:50:00,
2013-01-07 04:00:00,32.7,30.3,30.03,North,0,0.0,0.0,91,0.00,,,0.00,WUHU21623XXSP,2013-01-07 12:00:00,
2013-01-07 04:10:00,32.7,30.3,30.03,North,0,0.0,0.0,91,0.00,,,0.00,WUHU21623XXSP,2013-01-07 12:10:00,
2013-01-07 04:30:00,32.5,30.1,30.04,North,0,0.0,0.0,91,0.00,,,0.00,WUHU21623XXSP,2013-01-07 12:30:00,
2013-01-07 04:40:00,32.5,30.1,30.05,North,0,0.0,0.0,91,0.00,,,0.00,WUHU21623XXSP,2013-01-07 12:40:00,
2013-01-07 04:50:00,32.7,30.3,30.04,North,0,0.0,0.0,91,0.00,,,0.00,WUHU21623XXSP,2013-01-07 12:50:00,
2013-01-07 05:00:00,32.9,30.5,30.05,North,0,0.0,0.0,91,0.00,,,0.00,WUHU21623XXSP,2013-01-07 13:00:00,
2013-01-07 05:10:00,33.1,30.7,30.05,North,0,0.0,0.0,91,0.00,,,0.00,WUHU21623XXSP,2013-01-07 13:10:00,
2013-01-07 05:20:00,32.9,30.5,30.05,North,0,0.0,0.0,91,0.00,,,0.00,WUHU21623XXSP,2013-01-07 13:20:00,
2013-01-07 05:30:00,32.7,30.3,30.05,North,0,0.0,0.0,91,0.00,,,0.00,WUHU21623XXSP,2013-01-07 13:30:00,
2013-01-07 05:40:00,32.9,30.5,30.04,North,0,0.0,0.0,91,0.00,,,0.00,WUHU21623XXSP,2013-01-07 13:40:00,
2013-01-07 05:50:00,32.9,30.5,30.04,North,0,0.0,0.0,91,0.00,,,0.00,WUHU21623XXSP,2013-01-07 13:50:00,
2013-01-07 06:00:00,33.1,30.7,30.04,North,0,0.0,0.0,91,0.00,,,0.00,WUHU21623XXSP,2013-01-07 14:00:00,
2013-01-07 06:10:00,33.1,30.7,30.05,North,0,0.0,0.0,91,0.00,,,0.00,WUHU21623XXSP,2013-01-07 14:10:00,
2013-01-07 06:20:00,33.1,30.7,30.05,North,0,0.0,0.0,91,0.00,,,0.00,WUHU21623XXSP,2013-01-07 14:20:00,
2013-01-07 06:30:00,33.1,30.7,30.06,North,0,0.0,0.0,91,0.00,,,0.00,WUHU21623XXSP,2013-01-07 14:30:00,
2013-01-07 06:40:00,33.1,30.7,30.06,North,0,0.0,0.0,91,0.00,,,0.00,WUHU21623XXSP,2013-01-07 14:40:00,
2013-01-07 06:50:00,33.3,30.9,30.06,North,0,0.0,0.0,91,0.00,,,0.00,WUHU21623XXSP,2013-01-07 14:50:00,
2013-01-07 07:03:00,33.6,31.2,30.07,North,0,0.0,0.0,91,0.00,,,0.00,WUHU21623XXSP,2013-01-07 15:03:00,
2013-01-07 07:08:00,33.6,31.2,30.08,North,0,0.0,0.0,91,0.00,,,0.00,WUHU21623XXSP,2013-01-07 15:08:00,
2013-01-07 07:13:00,33.6,31.2,30.08,North,0,0.0,0.0,91,0.00,,,0.00,WUHU21623XXSP,2013-01-07 15:13:00,
2013-01-07 07:19:00,33.6,31.2,30.08,North,0,0.0,0.0,91,0.00,,,0.00,WUHU21623XXSP,2013-01-07 15:19:00,
2013-01-07 07:24:00,33.8,31.4,30.07,North,0,0.0,0.0,91,0.00,,,0.00,WUHU21623XXSP,2013-01-07 15:24:00,
2013-01-07 07:29:00,33.8,31.4,30.07,North,0,0.0,0.0,91,0.00,,,0.00,WUHU21623XXSP,2013-01-07 15:29:00,
2013-01-07 07:34:00,34.0,31.6,30.07,North,0,0.0,0.0,91,0.00,,,0.00,WUHU21623XXSP,2013-01-07 15:34:00,
2013-01-07 07:39:00,34.2,31.7,30.06,North,0,0.0,0.0,91,0.00,,,0.00,WUHU21623XXSP,2013-01-07 15:39:00,
2013-01-07 07:44:00,34.2,31.9,30.06,North,0,0.0,0.0,91,0.00,,,0.00,WUHU21623XXSP,2013-01-07 15:44:00,
2013-01-07 07:49:00,34.3,31.9,30.07,North,0,0.0,0.0,91,0.00,,,0.00,WUHU21623XXSP,2013-01-07 15:49:00,
2013-01-07 07:54:00,34.5,32.1,30.07,North,0,0.0,0.0,91,0.00,,,0.00,WUHU21623XXSP,2013-01-07 15:54:00,
2013-01-07 07:59:00,34.5,32.1,30.07,North,0,0.0,0.0,91,0.00,,,0.00,WUHU21623XXSP,2013-01-07 15:59:00,
2013-01-07 08:04:00,34.7,32.3,30.08,North,0,0.0,0.0,91,0.00,,,0.00,WUHU21623XXSP,2013-01-07 16:04:00,
2013-01-07 08:09:00,34.7,32.3,30.08,North,0,0.0,0.0,91,0.00,,,0.00,WUHU21623XXSP,2013-01-07 16:09:00,
2013-01-07 08:14:00,34.9,32.5,30.07,North,0,0.0,0.0,91,0.00,,,0.00,WUHU21623XXSP,2013-01-07 16:14:00,
2013-01-07 08:19:00,34.9,32.5,30.07,North,0,0.0,0.0,91,0.00,,,0.00,WUHU21623XXSP,2013-01-07 16:19:00,
2013-01-07 08:24:00,35.2,32.8,30.06,North,0,0.0,0.0,91,0.00,,,0.00,WUHU21623XXSP,2013-01-07 16:24:00,
2013-01-07 08:29:00,35.2,32.8,30.06,North,0,0.0,0.0,91,0.00,,,0.00,WUHU21623XXSP,2013-01-07 16:29:00,
2013-01-07 08:34:00,35.4,33.0,30.06,North,0,0.0,0.0,91,0.00,,,0.00,WUHU21623XXSP,2013-01-07 16:34:00,
2013-01-07 08:39:00,35.8,33.4,30.06,North,0,0.0,0.0,91,0.00,,,0.00,WUHU21623XXSP,2013-01-07 16:39:00,
2013-01-07 08:44:00,36.1,33.4,30.06,North,0,0.0,0.0,90,0.00,,,0.00,WUHU21623XXSP,2013-01-07 16:44:00,
2013-01-07 08:49:00,36.3,33.6,30.06,North,0,0.0,0.0,90,0.00,,,0.00,WUHU21623XXSP,2013-01-07 16:49:00,
2013-01-07 08:54:00,36.7,34.3,30.07,North,0,0.0,0.0,91,0.00,,,0.00,WUHU21623XXSP,2013-01-07 16:54:00,
2013-01-07 08:59:00,37.0,34.6,30.08,North,0,0.0,0.0,91,0.00,,,0.00,WUHU21623XXSP,2013-01-07 16:59:00,
2013-01-07 09:04:00,37.2,34.8,30.08,North,0,0.0,0.0,91,0.00,,,0.00,WUHU21623XXSP,2013-01-07 17:04:00,
2013-01-07 09:09:00,37.6,35.1,30.08,North,0,0.0,0.0,91,0.00,,,0.00,WUHU21623XXSP,2013-01-07 17:09:00,
2013-01-07 09:14:00,37.9,35.2,30.08,North,0,0.0,0.0,90,0.00,,,0.00,WUHU21623XXSP,2013-01-07 17:14:00,
2013-01-07 09:19:00,38.1,35.4,30.08,North,0,0.0,0.0,90,0.00,,,0.00,WUHU21623XXSP,2013-01-07 17:19:00,
2013-01-07 09:24:00,38.3,35.6,30.08,North,0,0.0,0.0,90,0.00,,,0.00,WUHU21623XXSP,2013-01-07 17:24:00,
2013-01-07 09:29:00,38.8,36.1,30.09,North,0,0.0,0.0,90,0.00,,,0.00,WUHU21623XXSP,2013-01-07 17:29:00,
2013-01-07 09:34:00,39.2,36.5,30.10,North,0,0.0,0.0,90,0.00,,,0.00,WUHU21623XXSP,2013-01-07 17:34:00,
2013-01-07 09:39:00,39.6,36.9,30.11,North,0,0.0,0.0,90,0.00,,,0.00,WUHU21623XXSP,2013-01-07 17:39:00,
2013-01-07 09:44:00,39.9,37.2,30.11,North,0,0.0,0.0,90,0.00,,,0.00,WUHU21623XXSP,2013-01-07 17:44:00,
2013-01-07 09:49:00,39.9,37.2,30.11,North,0,0.0,0.0,90,0.00,,,0.00,WUHU21623XXSP,2013-01-07 17:49:00,
2013-01-07 09:54:00,40.5,37.8,30.11,North,0,0.0,0.0,90,0.00,,,0.00,WUHU21623XXSP,2013-01-07 17:54:00,
2013-01-07 09:59:00,41.0,38.3,30.11,North,0,0.0,0.0,90,0.00,,,0.00,WUHU21623XXSP,2013-01-07 17:59:00,
2013-01-07 10:04:00,41.4,38.7,30.11,North,0,0.0,0.0,90,0.00,,,0.00,WUHU21623XXSP,2013-01-07 18:04:00,
2013-01-07 10:09:00,41.5,38.8,30.11,North,0,0.0,0.0,90,0.00,,,0.00,WUHU21623XXSP,2013-01-07 18:09:00,
2013-01-07 10:14:00,41.9,39.2,30.11,North,0,0.0,0.0,90,0.00,,,0.00,WUHU21623XXSP,2013-01-07 18:14:00,
2013-01-07 10:19:00,42.1,39.4,30.11,North,0,0.0,0.0,90,0.00,,,0.00,WUHU21623XXSP,2013-01-07 18:19:00,
2013-01-07 10:24:00,42.1,39.4,30.11,North,0,0.0,0.0,90,0.00,,,0.00,WUHU21623XXSP,2013-01-07 18:24:00,
2013-01-07 10:29:00,42.4,39.7,30.11,North,0,0.0,0.0,90,0.00,,,0.00,WUHU21623XXSP,2013-01-07 18:29:00,
2013-01-07 10:34:00,42.6,39.9,30.11,North,0,0.0,0.0,90,0.00,,,0.00,WUHU21623XXSP,2013-01-07 18:34:00,
2013-01-07 10:39:00,43.0,40.3,30.11,North,0,0.0,0.0,90,0.00,,,0.00,WUHU21623XXSP,2013-01-07 18:39:00,
2013-01-07 10:44:00,43.3,40.6,30.11,North,0,0.0,0.0,90,0.00,,,0.00,WUHU21623XXSP,2013-01-07 18:44:00,
2013-01-07 10:49:00,43.7,41.0,30.11,North,0,0.0,0.0,90,0.00,,,0.00,WUHU21623XXSP,2013-01-07 18:49:00,
2013-01-07 10:54:00,43.9,41.2,30.10,North,0,0.0,0.0,90,0.00,,,0.00,WUHU21623XXSP,2013-01-07 18:54:00,
2013-01-07 10:59:00,44.1,41.4,30.10,North,0,0.0,0.0,90,0.00,,,0.00,WUHU21623XXSP,2013-01-07 18:59:00,
2013-01-07 11:04:00,44.4,41.7,30.11,North,0,0.0,0.0,90,0.00,,,0.00,WUHU21623XXSP,2013-01-07 19:04:00,
2013-01-07 11:09:00,45.0,42.3,30.11,North,0,0.0,0.0,90,0.00,,,0.00,WUHU21623XXSP,2013-01-07 19:09:00,
2013-01-07 11:14:00,45.1,42.4,30.11,North,0,0.0,0.0,90,0.00,,,0.00,WUHU21623XXSP,2013-01-07 19:14:00,
2013-01-07 11:19:00,45.3,42.6,30.10,North,0,0.0,0.0,90,0.00,,,0.00,WUHU21623XXSP,2013-01-07 19:19:00,
2013-01-07 11:24:00,45.7,43.0,30.10,North,0,0.0,0.0,90,0.00,,,0.00,WUHU21623XXSP,2013-01-07 19:24:00,
2013-01-07 11:29:00,46.4,44.0,30.09,North,0,0.0,0.0,91,0.00,,,0.00,WUHU21623XXSP,2013-01-07 19:29:00,
2013-01-07 11:34:00,46.9,44.2,30.09,North,0,0.0,0.0,90,0.00,,,0.00,WUHU21623XXSP,2013-01-07 19:34:00,
2013-01-07 11:39:00,47.5,44.8,30.09,North,0,0.0,0.0,90,0.00,,,0.00,WUHU21623XXSP,2013-01-07 19:39:00,
2013-01-07 11:44:00,48.2,45.2,30.08,North,0,0.0,0.0,89,0.00,,,0.00,WUHU21623XXSP,2013-01-07 19:44:00,
2013-01-07 11:49:00,48.9,45.5,30.08,North,0,0.0,0.0,88,0.00,,,0.00,WUHU21623XXSP,2013-01-07 19:49:00,
2013-01-07 11:54:00,49.3,44.9,30.07,North,0,0.0,0.0,85,0.00,,,0.00,WUHU21623XXSP,2013-01-07 19:54:00,
2013-01-07 11:59:00,49.8,44.6,30.07,North,0,0.0,0.0,83,0.00,,,0.00,WUHU21623XXSP,2013-01-07 19:59:00,
2013-01-07 12:04:00,50.2,44.9,30.06,North,0,0.0,0.0,82,0.00,,,0.00,WUHU21623XXSP,2013-01-07 20:04:00,
2013-01-07 12:09:00,50.5,44.6,30.06,North,0,0.0,0.0,80,0.00,,,0.00,WUHU21623XXSP,2013-01-07 20:09:00,
2013-01-07 12:14:00,50.9,44.6,30.06,North,0,0.0,0.0,79,0.00,,,0.00,WUHU21623XXSP,2013-01-07 20:14:00,
2013-01-07 12:19:00,51.1,44.8,30.06,North,0,0.0,0.0,79,0.00,,,0.00,WUHU21623XXSP,2013-01-07 20:19:00,
2013-01-07 12:24:00,51.4,44.5,30.06,North,0,0.0,0.0,77,0.00,,,0.00,WUHU21623XXSP,2013-01-07 20:24:00,
2013-01-07 12:29:00,51.6,44.7,30.06,North,0,0.0,0.0,77,0.00,,,0.00,WUHU21623XXSP,2013-01-07 20:29:00,
2013-01-07 12:34:00,52.2,45.2,30.05,North,0,0.0,0.0,77,0.00,,,0.00,WUHU21623XXSP,2013-01-07 20:34:00,
2013-01-07 12:39:00,52.3,44.7,30.05,North,0,0.0,0.0,75,0.00,,,0.00,WUHU21623XXSP,2013-01-07 20:39:00,
2013-01-07 12:44:00,52.7,44.7,30.05,North,0,0.0,0.0,74,0.00,,,0.00,WUHU21623XXSP,2013-01-07 20:44:00,
2013-01-07 12:49:00,52.9,44.8,30.05,North,0,0.0,0.0,74,0.00,,,0.00,WUHU21623XXSP,2013-01-07 20:49:00,
2013-01-07 12:54:00,52.9,44.1,30.06,North,0,0.0,0.0,72,0.00,,,0.00,WUHU21623XXSP,2013-01-07 20:54:00,
2013-01-07 12:59:00,52.9,43.4,30.06,North,0,0.0,0.0,70,0.00,,,0.00,WUHU21623XXSP,2013-01-07 20:59:00,
2013-01-07 13:04:00,52.9,43.4,30.05,North,0,0.0,0.0,70,0.00,,,0.00,WUHU21623XXSP,2013-01-07 21:04:00,
2013-01-07 13:09:00,52.9,43.4,30.05,North,0,0.0,0.0,70,0.00,,,0.00,WUHU21623XXSP,2013-01-07 21:09:00,
2013-01-07 13:14:00,52.7,43.3,30.06,North,0,0.0,0.0,70,0.00,,,0.00,WUHU21623XXSP,2013-01-07 21:14:00,
2013-01-07 13:19:00,52.7,42.8,30.07,North,0,0.0,0.0,69,0.00,,,0.00,WUHU21623XXSP,2013-01-07 21:19:00,
2013-01-07 13:24:00,52.5,42.7,30.07,North,0,0.0,0.0,69,0.00,,,0.00,WUHU21623XXSP,2013-01-07 21:24:00,
2013-01-07 13:29:00,52.5,43.1,30.07,North,0,0.0,0.0,70,0.00,,,0.00,WUHU21623XXSP,2013-01-07 21:29:00,
2013-01-07 13:34:00,52.3,42.9,30.08,North,0,0.0,0.0,70,0.00,,,0.00,WUHU21623XXSP,2013-01-07 21:34:00,
2013-01-07 13:39:00,52.2,43.1,30.08,North,0,0.0,0.0,71,0.00,,,0.00,WUHU21623XXSP,2013-01-07 21:39:00,
2013-01-07 13:44:00,52.0,43.3,30.07,North,0,0.0,0.0,72,0.00,,,0.00,WUHU21623XXSP,2013-01-07 21:44:00,
2013-01-07 13:49:00,51.8,43.1,30.07,North,0,0.0,0.0,72,0.00,,,0.00,WUHU21623XXSP,2013-01-07 21:49:00,
2013-01-07 13:54:00,51.6,42.9,30.07,North,0,0.0,0.0,72,0.00,,,0.00,WUHU21623XXSP,2013-01-07 21:54:00,
2013-01-07 13:59:00,51.6,43.3,30.07,North,0,0.0,0.0,73,0.00,,,0.00,WUHU21623XXSP,2013-01-07 21:59:00,
2013-01-07 14:04:00,51.4,43.1,30.07,North,0,0.0,0.0,73,0.00,,,0.00,WUHU21623XXSP,2013-01-07 22:04:00,
2013-01-07 14:09:00,51.3,43.3,30.06,North,0,0.0,0.0,74,0.00,,,0.00,WUHU21623XXSP,2013-01-07 22:09:00,
2013-01-07 14:14:00,51.1,43.4,30.06,North,0,0.0,0.0,75,0.00,,,0.00,WUHU21623XXSP,2013-01-07 22:14:00,
2013-01-07 14:19:00,51.1,43.4,30.06,North,0,0.0,0.0,75,0.00,,,0.00,WUHU21623XXSP,2013-01-07 22:19:00,
2013-01-07 14:24:00,51.1,43.4,30.07,North,0,0.0,0.0,75,0.00,,,0.00,WUHU21623XXSP,2013-01-07 22:24:00,
2013-01-07 14:29:00,50.9,43.3,30.07,North,0,0.0,0.0,75,0.00,,,0.00,WUHU21623XXSP,2013-01-07 22:29:00,
2013-01-07 14:34:00,50.9,43.6,30.08,North,0,0.0,0.0,76,0.00,,,0.00,WUHU21623XXSP,2013-01-07 22:34:00,
2013-01-07 14:39:00,51.1,43.8,30.08,North,0,0.0,0.0,76,0.00,,,0.00,WUHU21623XXSP,2013-01-07 22:39:00,
2013-01-07 14:44:00,51.1,43.8,30.07,North,0,0.0,0.0,76,0.00,,,0.00,WUHU21623XXSP,2013-01-07 22:44:00,
2013-01-07 14:49:00,51.3,44.0,30.07,North,0,0.0,0.0,76,0.00,,,0.00,WUHU21623XXSP,2013-01-07 22:49:00,
2013-01-07 14:54:00,51.1,43.8,30.07,North,0,0.0,0.0,76,0.00,,,0.00,WUHU21623XXSP,2013-01-07 22:54:00,
2013-01-07 14:59:00,51.1,43.8,30.07,North,0,0.0,0.0,76,0.00,,,0.00,WUHU21623XXSP,2013-01-07 22:59:00,
2013-01-07 15:04:00,51.1,44.1,30.07,North,0,0.0,0.0,77,0.00,,,0.00,WUHU21623XXSP,2013-01-07 23:04:00,
2013-01-07 15:09:00,51.1,44.1,30.07,North,0,0.0,0.0,77,0.00,,,0.00,WUHU21623XXSP,2013-01-07 23:09:00,
2013-01-07 15:14:00,50.9,43.9,30.06,North,0,0.0,0.0,77,0.00,,,0.00,WUHU21623XXSP,2013-01-07 23:14:00,
2013-01-07 15:19:00,50.7,43.8,30.06,North,0,0.0,0.0,77,0.00,,,0.00,WUHU21623XXSP,2013-01-07 23:19:00,
2013-01-07 15:24:00,50.5,43.6,30.06,North,0,0.0,0.0,77,0.00,,,0.00,WUHU21623XXSP,2013-01-07 23:24:00,
2013-01-07 15:29:00,50.4,43.4,30.05,North,0,0.0,0.0,77,0.00,,,0.00,WUHU21623XXSP,2013-01-07 23:29:00,
2013-01-07 15:34:00,50.4,43.4,30.06,North,0,0.0,0.0,77,0.00,,,0.00,WUHU21623XXSP,2013-01-07 23:34:00,
2013-01-07 15:39:00,50.5,43.6,30.05,North,0,0.0,0.0,77,0.00,,,0.00,WUHU21623XXSP,2013-01-07 23:39:00,
2013-01-07 15:44:00,50.5,43.6,30.05,North,0,0.0,0.0,77,0.00,,,0.00,WUHU21623XXSP,2013-01-07 23:44:00,
2013-01-07 15:49:00,50.5,43.6,30.06,North,0,0.0,0.0,77,0.00,,,0.00,WUHU21623XXSP,2013-01-07 23:49:00,
2013-01-07 15:54:00,50.4,43.4,30.06,North,0,0.0,0.0,77,0.00,,,0.00,WUHU21623XXSP,2013-01-07 23:54:00,
2013-01-07 15:59:00,50.4,43.7,30.06,North,0,0.0,0.0,78,0.00,,,0.00,WUHU21623XXSP,2013-01-07 23:59:00,
2013-01-07 16:04:00,50.2,43.6,30.06,North,0,0.0,0.0,78,0.00,,,0.00,WUHU21623XXSP,2013-01-08 00:04:00,
2013-01-07 16:09:00,50.2,43.6,30.06,North,0,0.0,0.0,78,0.00,,,0.00,WUHU21623XXSP,2013-01-08 00:09:00,
2013-01-07 16:14:00,50.0,43.4,30.06,North,0,0.0,0.0,78,0.00,,,0.00,WUHU21623XXSP,2013-01-08 00:14:00,
2013-01-07 16:19:00,49.8,43.5,30.06,North,0,0.0,0.0,79,0.00,,,0.00,WUHU21623XXSP,2013-01-08 00:19:00,
2013-01-07 16:24:00,49.6,43.4,30.06,North,0,0.0,0.0,79,0.00,,,0.00,WUHU21623XXSP,2013-01-08 00:24:00,
2013-01-07 16:29:00,49.6,43.4,30.06,North,0,0.0,0.0,79,0.00,,,0.00,WUHU21623XXSP,2013-01-08 00:29:00,
2013-01-07 16:34:00,49.3,43.3,30.06,North,0,0.0,0.0,80,0.00,,,0.00,WUHU21623XXSP,2013-01-08 00:34:00,
2013-01-07 16:39:00,49.1,43.2,30.06,North,0,0.0,0.0,80,0.00,,,0.00,WUHU21623XXSP,2013-01-08 00:39:00,
2013-01-07 16:44:00,48.9,43.0,30.06,North,0,0.0,0.0,80,0.00,,,0.00,WUHU21623XXSP,2013-01-08 00:44:00,
2013-01-07 16:49:00,48.7,42.8,30.05,North,0,0.0,0.0,80,0.00,,,0.00,WUHU21623XXSP,2013-01-08 00:49:00,
2013-01-07 16:54:00,48.6,42.9,30.06,North,0,0.0,0.0,81,0.00,,,0.00,WUHU21623XXSP,2013-01-08 00:54:00,
2013-01-07 16:59:00,48.4,42.7,30.06,North,0,0.0,0.0,81,0.00,,,0.00,WUHU21623XXSP,2013-01-08 00:59:00,
2013-01-07 17:04:00,48.0,42.4,30.06,North,0,0.0,0.0,81,0.00,,,0.00,WUHU21623XXSP,2013-01-08 01:04:00,
2013-01-07 17:09:00,47.8,42.2,30.06,North,0,0.0,0.0,81,0.00,,,0.00,WUHU21623XXSP,2013-01-08 01:09:00,
2013-01-07 17:14:00,47.5,42.2,30.06,North,0,0.0,0.0,82,0.00,,,0.00,WUHU21623XXSP,2013-01-08 01:14:00,
2013-01-07 17:19:00,47.1,41.9,30.06,North,0,0.0,0.0,82,0.00,,,0.00,WUHU21623XXSP,2013-01-08 01:19:00,
2013-01-07 17:24:00,46.9,41.7,30.06,North,0,0.0,0.0,82,0.00,,,0.00,WUHU21623XXSP,2013-01-08 01:24:00,
2013-01-07 17:29:00,46.6,41.7,30.06,North,0,0.0,0.0,83,0.00,,,0.00,WUHU21623XXSP,2013-01-08 01:29:00,
2013-01-07 17:34:00,46.2,41.4,30.06,North,0,0.0,0.0,83,0.00,,,0.00,WUHU21623XXSP,2013-01-08 01:34:00,
2013-01-07 17:39:00,46.0,41.2,30.06,North,0,0.0,0.0,83,0.00,,,0.00,WUHU21623XXSP,2013-01-08 01:39:00,
2013-01-07 17:44:00,45.7,40.8,30.06,North,0,0.0,0.0,83,0.00,,,0.00,WUHU21623XXSP,2013-01-08 01:44:00,
2013-01-07 17:49:00,45.3,40.5,30.06,North,0,0.0,0.0,83,0.00,,,0.00,WUHU21623XXSP,2013-01-08 01:49:00,
2013-01-07 17:54:00,45.1,40.6,30.06,North,0,0.0,0.0,84,0.00,,,0.00,WUHU21623XXSP,2013-01-08 01:54:00,
2013-01-07 17:59:00,44.8,40.2,30.06,North,0,0.0,0.0,84,0.00,,,0.00,WUHU21623XXSP,2013-01-08 01:59:00,
2013-01-07 18:04:00,44.4,39.9,30.06,North,0,0.0,0.0,84,0.00,,,0.00,WUHU21623XXSP,2013-01-08 02:04:00,
2013-01-07 18:09:00,44.2,40.0,30.06,North,0,0.0,0.0,85,0.00,,,0.00,WUHU21623XXSP,2013-01-08 02:09:00,
2013-01-07 18:14:00,43.9,39.6,30.06,North,0,0.0,0.0,85,0.00,,,0.00,WUHU21623XXSP,2013-01-08 02:14:00,
2013-01-07 18:19:00,43.5,39.0,30.06,North,0,0.0,0.0,84,0.00,,,0.00,WUHU21623XXSP,2013-01-08 02:19:00,
2013-01-07 18:24:00,43.3,39.1,30.05,North,0,0.0,0.0,85,0.00,,,0.00,WUHU21623XXSP,2013-01-08 02:24:00,
2013-01-07 18:29:00,43.0,38.8,30.06,North,0,0.0,0.0,85,0.00,,,0.00,WUHU21623XXSP,2013-01-08 02:29:00,
2013-01-07 18:34:00,42.6,38.4,30.06,North,0,0.0,0.0,85,0.00,,,0.00,WUHU21623XXSP,2013-01-08 02:34:00,
2013-01-07 18:39:00,42.4,38.5,30.06,North,0,0.0,0.0,86,0.00,,,0.00,WUHU21623XXSP,2013-01-08 02:39:00,
2013-01-07 18:44:00,42.4,38.5,30.06,North,0,0.0,0.0,86,0.00,,,0.00,WUHU21623XXSP,2013-01-08 02:44:00,
2013-01-07 18:49:00,42.1,38.2,30.06,North,0,0.0,0.0,86,0.00,,,0.00,WUHU21623XXSP,2013-01-08 02:49:00,
2013-01-07 18:54:00,42.1,38.2,30.06,North,0,0.0,0.0,86,0.00,,,0.00,WUHU21623XXSP,2013-01-08 02:54:00,
2013-01-07 18:59:00,41.9,38.3,30.06,North,0,0.0,0.0,87,0.00,,,0.00,WUHU21623XXSP,2013-01-08 02:59:00,
2013-01-07 19:04:00,41.7,38.1,30.06,North,0,0.0,0.0,87,0.00,,,0.00,WUHU21623XXSP,2013-01-08 03:04:00,
2013-01-07 19:09:00,41.5,37.9,30.06,North,0,0.0,0.0,87,0.00,,,0.00,WUHU21623XXSP,2013-01-08 03:09:00,
2013-01-07 19:14:00,41.5,37.9,30.06,North,0,0.0,0.0,87,0.00,,,0.00,WUHU21623XXSP,2013-01-08 03:14:00,
2013-01-07 19:19:00,41.4,37.7,30.06,North,0,0.0,0.0,87,0.00,,,0.00,WUHU21623XXSP,2013-01-08 03:19:00,
2013-01-07 19:24:00,41.2,37.9,30.05,North,0,0.0,0.0,88,0.00,,,0.00,WUHU21623XXSP,2013-01-08 03:24:00,
2013-01-07 19:29:00,41.2,37.9,30.05,North,0,0.0,0.0,88,0.00,,,0.00,WUHU21623XXSP,2013-01-08 03:29:00,
2013-01-07 19:34:00,41.2,37.9,30.05,North,0,0.0,0.0,88,0.00,,,0.00,WUHU21623XXSP,2013-01-08 03:34:00,
2013-01-07 19:39:00,41.0,37.7,30.05,North,0,0.0,0.0,88,0.00,,,0.00,WUHU21623XXSP,2013-01-08 03:39:00,
2013-01-07 19:44:00,41.2,37.9,30.05,North,0,0.0,0.0,88,0.00,,,0.00,WUHU21623XXSP,2013-01-08 03:44:00,
2013-01-07 19:49:00,41.2,37.9,30.05,North,0,0.0,0.0,88,0.00,,,0.00,WUHU21623XXSP,2013-01-08 03:49:00,
2013-01-07 19:54:00,41.2,37.9,30.05,North,0,0.0,0.0,88,0.00,,,0.00,WUHU21623XXSP,2013-01-08 03:54:00,
2013-01-07 19:59:00,41.2,37.9,30.05,North,0,0.0,0.0,88,0.00,,,0.00,WUHU21623XXSP,2013-01-08 03:59:00,
2013-01-07 20:04:00,41.2,37.9,30.06,North,0,0.0,0.0,88,0.00,,,0.00,WUHU21623XXSP,2013-01-08 04:04:00,
2013-01-07 20:09:00,41.0,38.0,30.06,North,0,0.0,0.0,89,0.00,,,0.00,WUHU21623XXSP,2013-01-08 04:09:00,
2013-01-07 20:14:00,41.0,37.7,30.07,North,0,0.0,0.0,88,0.00,,,0.00,WUHU21623XXSP,2013-01-08 04:14:00,
2013-01-07 20:19:00,41.0,38.0,30.07,North,0,0.0,0.0,89,0.00,,,0.00,WUHU21623XXSP,2013-01-08 04:19:00,
2013-01-07 20:24:00,41.0,38.0,30.06,North,0,0.0,0.0,89,0.00,,,0.00,WUHU21623XXSP,2013-01-08 04:24:00,
2013-01-07 20:29:00,40.8,37.8,30.06,North,0,0.0,0.0,89,0.00,,,0.00,WUHU21623XXSP,2013-01-08 04:29:00,
2013-01-07 20:34:00,40.8,37.8,30.06,North,0,0.0,0.0,89,0.00,,,0.00,WUHU21623XXSP,2013-01-08 04:34:00,
2013-01-07 20:39:00,40.8,37.8,30.06,North,0,0.0,0.0,89,0.00,,,0.00,WUHU21623XXSP,2013-01-08 04:39:00,
2013-01-07 20:44:00,40.6,37.6,30.06,North,0,0.0,0.0,89,0.00,,,0.00,WUHU21623XXSP,2013-01-08 04:44:00,
2013-01-07 20:49:00,40.5,37.5,30.06,North,0,0.0,0.0,89,0.00,,,0.00,WUHU21623XXSP,2013-01-08 04:49:00,
2013-01-07 20:54:00,40.3,37.3,30.06,North,0,0.0,0.0,89,0.00,,,0.00,WUHU21623XXSP,2013-01-08 04:54:00,
2013-01-07 20:59:00,40.1,37.1,30.06,North,0,0.0,0.0,89,0.00,,,0.00,WUHU21623XXSP,2013-01-08 04:59:00,
2013-01-07 21:00:00,40.1,37.1,30.05,North,0,0.0,0.0,89,0.00,,,0.00,WUHU21623XXSP,2013-01-08 05:00:00,
2013-01-07 21:09:00,39.7,36.7,30.06,North,0,0.0,0.0,89,0.00,,,0.00,WUHU21623XXSP,2013-01-08 05:09:00,
2013-01-07 21:19:00,39.6,36.6,30.06,North,0,0.0,0.0,89,0.00,,,0.00,WUHU21623XXSP,2013-01-08 05:19:00,
2013-01-07 21:29:00,39.4,36.7,30.06,North,0,0.0,0.0,90,0.00,,,0.00,WUHU21623XXSP,2013-01-08 05:29:00,
2013-01-07 21:39:00,39.4,36.7,30.06,North,0,0.0,0.0,90,0.00,,,0.00,WUHU21623XXSP,2013-01-08 05:39:00,
2013-01-07 21:49:00,39.4,36.7,30.06,North,0,0.0,0.0,90,0.00,,,0.00,WUHU21623XXSP,2013-01-08 05:49:00,
2013-01-07 21:59:00,39.4,36.7,30.07,North,0,0.0,0.0,90,0.00,,,0.00,WUHU21623XXSP,2013-01-08 05:59:00,
2013-01-07 22:09:00,39.4,36.7,30.07,North,0,0.0,0.0,90,0.00,,,0.00,WUHU21623XXSP,2013-01-08 06:09:00,
2013-01-07 22:19:00,39.0,36.3,30.07,North,0,0.0,0.0,90,0.00,,,0.00,WUHU21623XXSP,2013-01-08 06:19:00,
2013-01-07 22:29:00,39.0,36.3,30.08,North,0,0.0,0.0,90,0.00,,,0.00,WUHU21623XXSP,2013-01-08 06:29:00,
2013-01-07 22:39:00,38.8,36.1,30.08,North,0,0.0,0.0,90,0.00,,,0.00,WUHU21623XXSP,2013-01-08 06:39:00,
2013-01-07 22:49:00,38.8,36.1,30.09,North,0,0.0,0.0,90,0.00,,,0.00,WUHU21623XXSP,2013-01-08 06:49:00,
2013-01-07 22:59:00,38.5,35.8,30.08,North,0,0.0,0.0,90,0.00,,,0.00,WUHU21623XXSP,2013-01-08 06:59:00,
2013-01-07 23:09:00,38.3,35.6,30.09,North,0,0.0,0.0,90,0.00,,,0.00,WUHU21623XXSP,2013-01-08 07:09:00,
2013-01-07 23:19:00,38.1,35.4,30.08,North,0,0.0,0.0,90,0.00,,,0.00,WUHU21623XXSP,2013-01-08 07:19:00,
2013-01-07 23:29:00,37.9,35.2,30.08,North,0,0.0,0.0,90,0.00,,,0.00,WUHU21623XXSP,2013-01-08 07:29:00,
2013-01-07 23:39:00,37.9,35.2,30.08,North,0,0.0,0.0,90,0.00,,,0.00,WUHU21623XXSP,2013-01-08 07:39:00,
2013-01-07 23:49:00,37.8,35.1,30.08,North,0,0.0,0.0,90,0.00,,,0.00,WUHU21623XXSP,2013-01-08 07:49:00,
2013-01-07 23:59:00,37.8,35.1,30.08,North,0,0.0,0.0,90,0.00,,,0.00,WUHU21623XXSP,2013-01-08 07:59:00,